This is the latest recevied weather packets stored in our database for station/object KF0JJO. If no packets are shown the sender has not sent any weather packets the latest 10 day(s).
| Time | Temp. | Humidity | Pressure | Rain* | Wind** | Luminosity | Snow |
|---|---|---|---|---|---|---|---|
| 1777579379 | 11.67° C | 37% | 1048.5 hPa | 0 mm | - | 942 W/m² | - |
| 1777579075 | 11.11° C | 34% | 1048.4 hPa | 0 mm | - | 962 W/m² | - |
| 1777578770 | 11.11° C | 33% | 1048.6 hPa | 0 mm | - | 218 W/m² | - |
| 1777578470 | 11.11° C | 34% | 1048.7 hPa | 0 mm | - | 1041 W/m² | - |
| 1777578166 | 11.11° C | 32% | 1048.8 hPa | 0 mm | - | 1085 W/m² | - |
| 1777577861 | 11.67° C | 33% | 1048.7 hPa | 0 mm | - | 361 W/m² | - |
| 1777577558 | 11.11° C | 37% | 1048.8 hPa | 0 mm | - | 642 W/m² | - |
| 1777577255 | 10° C | 37% | 1048.7 hPa | 0 mm | - | 1052 W/m² | - |
| 1777576950 | 10.56° C | 35% | 1049 hPa | 0 mm | - | 244 W/m² | - |
| 1777576647 | 10.56° C | 36% | 1049 hPa | 0 mm | - | 1122 W/m² | - |
| 1777576341 | 11.11° C | 35% | 1048.9 hPa | 0 mm | - | 222 W/m² | - |
| 1777576038 | 10.56° C | 34% | 1049 hPa | 0 mm | - | 1087 W/m² | - |
| 1777575734 | 11.11° C | 35% | 1048.9 hPa | 0 mm | - | 1017 W/m² | - |
| 1777575430 | 10.56° C | 39% | 1049.1 hPa | 0 mm | - | 986 W/m² | - |
| 1777575126 | 10.56° C | 39% | 1049.2 hPa | 0 mm | - | 245 W/m² | - |
| 1777574821 | 10.56° C | 37% | 1049 hPa | 0 mm | - | 782 W/m² | - |
| 1777574520 | 11.11° C | 40% | 1049.1 hPa | 0 mm | - | 330 W/m² | - |
| 1777574216 | 10.56° C | 38% | 1049.3 hPa | 0 mm | - | 479 W/m² | - |
| 1777573910 | 10.56° C | 38% | 1049.1 hPa | 0 mm | - | 1128 W/m² | - |
| 1777573610 | 10° C | 39% | 1049.2 hPa | 0 mm | - | 987 W/m² | - |
| 1777573308 | 10.56° C | 38% | 1049.2 hPa | 0 mm | - | 626 W/m² | - |
| 1777573004 | 10.56° C | 37% | 1049.4 hPa | 0 mm | - | 1009 W/m² | - |
| 1777572699 | 10° C | 39% | 1049.4 hPa | 0 mm | - | 987 W/m² | - |
| 1777572400 | 10° C | 40% | 1049.4 hPa | 0 mm | - | 1051 W/m² | - |
| 1777572097 | 10° C | 37% | 1049.2 hPa | 0 mm | - | 1050 W/m² | - |
* Rain latest hour (hover to see other rain measurements)
** Current wind speed in m/s (hover to see current wind gust speed)